McCall, ID

3:55 PM MST on February 22, 2017 (GMT -0700)
McCall

Weather History for KMYL - June, 2013

Change the Weather History Date:

Tuesday, June 4, 2013

  Actual Average Record
Temperature  
Mean Temperature 55 °F 50 °F  
Max Temperature 70 °F 64 °F 87 °F (2007)
Min Temperature 39 °F 36 °F 26 °F (1973)
Degree Days  
Heating Degree Days 10 15  
Month to date heating degree days 56 61  
Since 1 June heating degree days 56 61  
Since 1 July heating degree days 8431 9290  
Cooling Degree Days 0 0  
Month to date cooling degree days 0 0  
Year to date cooling degree days 0 0  
Since 1 June cooling degree days 0 0  
Growing Degree Days 4 (Base 50)    
Moisture  
Dew Point 34 °F    
Average Humidity 53    
Maximum Humidity 85    
Minimum Humidity 20    
Precipitation  
Precipitation 0.00 in 0.09 in 1.10 in (2010)
Month to date precipitation 0.03 0.34  
Year to date precipitation 9.34 10.12  
Sea Level Pressure  
Sea Level Pressure 30.03 in    
Wind  
Wind Speed 6 mph (NNW)    
Max Wind Speed 16 mph    
Max Gust Speed 21 mph    
Visibility 10 miles    
Events      
T = Trace of Precipitation, MM = Missing Value Source: NWS Daily Summary

Daily Weather History Graph

Daily Weather History Graph

Search for Another Location

Airport or City:

Trip Planner

Search our weather history database for the weather conditions in past years. The results will help you decide how hot, cold, wet, or windy it might be!

Date:

Astronomy

Jun. 04, 2013 Rise Set
Actual Time 5:59 AM MDT 9:26 PM MDT
Civil Twilight 5:23 AM MDT 10:02 PM MDT
Nautical Twilight 4:35 AM MDT 10:50 PM MDT
Astronomical Twilight 3:34 AM MDT 11:52 PM MDT
Moon 3:40 AM MDT (6/4) 5:52 PM MDT (6/4)
Length of Visible Light 16h 39m
Length of Day
15h 26m
Waning Crescent, 14% of the Moon is Illuminated
Jun 4
Waning Crescent
Jun 8
New
Jun 16
First Quarter
Jun 23
Full
Jun 29
Last Quarter

Hourly Weather History & Observations

Time (MDT) Temp. Windchill Dew Point Humidity Pressure Visibility Wind Dir Wind Speed Gust Speed Precip Events Conditions
12:51 AM 45.0 °F 42.6 °F 37.0 °F 74% 30.00 in 10.0 mi ENE 4.6 mph - N/A   Clear
1:51 AM 45.0 °F 43.5 °F 36.0 °F 71% 30.01 in 10.0 mi NNE 3.5 mph - N/A   Clear
2:51 AM 44.1 °F - 36.0 °F 73% 30.01 in 10.0 mi Calm Calm - N/A   Clear
3:51 AM 41.0 °F - 36.0 °F 82% 30.02 in 10.0 mi Calm Calm - N/A   Clear
4:51 AM 39.0 °F - 35.1 °F 86% 30.02 in 10.0 mi Calm Calm - N/A   Clear
5:51 AM 41.0 °F - 36.0 °F 82% 30.02 in 10.0 mi Calm Calm - N/A   Clear
6:51 AM 46.0 °F 43.9 °F 36.0 °F 68% 30.03 in 10.0 mi NNE 4.6 mph - N/A   Clear
7:51 AM 50.0 °F - 37.0 °F 61% 30.03 in 10.0 mi Variable 3.5 mph - N/A   Clear
8:51 AM 55.0 °F - 35.1 °F 47% 30.03 in 10.0 mi Calm Calm - N/A   Clear
9:51 AM 57.9 °F - 34.0 °F 41% 30.04 in 10.0 mi Variable 5.8 mph - N/A   Clear
10:51 AM 61.0 °F - 30.0 °F 31% 30.04 in 10.0 mi Variable 6.9 mph 18.4 mph N/A   Clear
11:51 AM 61.0 °F - 28.9 °F 30% 30.05 in 10.0 mi NW 10.4 mph - N/A   Clear
12:51 PM 64.0 °F - 28.0 °F 26% 30.05 in 10.0 mi NNW 6.9 mph - N/A   Clear
1:51 PM 66.0 °F - 25.0 °F 21% 30.04 in 10.0 mi NW 9.2 mph - N/A   Clear
2:51 PM 66.0 °F - 33.1 °F 29% 30.04 in 10.0 mi WNW 8.1 mph 16.1 mph N/A   Clear
3:51 PM 69.1 °F - 34.0 °F 27% 30.03 in 10.0 mi Variable 5.8 mph 18.4 mph N/A   Clear
4:51 PM 70.0 °F - 35.1 °F 28% 30.02 in 10.0 mi WNW 13.8 mph 19.6 mph N/A   Clear
5:51 PM 68.0 °F - 36.0 °F 31% 30.01 in 10.0 mi West 13.8 mph 20.7 mph N/A   Clear
6:51 PM 69.1 °F - 34.0 °F 27% 30.00 in 10.0 mi NNW 8.1 mph - N/A   Clear
7:51 PM 66.9 °F - 36.0 °F 32% 30.00 in 10.0 mi NNW 12.7 mph - N/A   Clear
8:51 PM 63.0 °F - 36.0 °F 37% 30.01 in 10.0 mi NW 5.8 mph - N/A   Clear
9:51 PM 60.1 °F - 37.0 °F 42% 30.03 in 10.0 mi NW 5.8 mph - N/A   Clear
10:51 PM 57.9 °F - 36.0 °F 44% 30.04 in 10.0 mi North 5.8 mph - N/A   Clear
11:51 PM 55.0 °F - 37.0 °F 51% 30.05 in 10.0 mi NNW 4.6 mph - N/A   Clear